Location: Quedlinburg
(51.7921°N, 11.1414°E)
Time: 02:38:31
(UTC+02:00)

METEOR M2 - Pass Details

Date: 15 March 2026
Orbit: 817 x 824 km, 98.5° (Epoch: 13 April)

Event Time Altitude Azimuth Distance (km) Brightness Sun altitude
Rises 05:38:04 0° 11° (N) 3,374 ? -8.8°
Reaches altitude 10° 05:40:31 10° 5° (N) 2,437 ? -8.5°
Maximum altitude 05:45:35 44° 295° (WNW) 1,138 ? -7.7°
Drops below altitude 10° 05:50:38 10° 225° (SW) 2,422 ? -6.9°
Sets 05:53:04 0° 219° (SW) 3,350 ? -6.5°
